Overview Statistics Trail Chart Weather Telemetry Raw packets
 

This is the latest recevied weather packets stored in our database for station/object SV9TNF-51. If no packets are shown the sender has not sent any weather packets the latest 10 day(s).

<< 98 99 100 101 102 103 104 >>
Time Temp. Humidity Pressure Rain* Wind** Luminosity Snow
1787927484 34.44° C 36% 1011.2 hPa 0 mm 0.89 m/s, 128° - -
1787927184 34.44° C 36% 1011.2 hPa 0 mm 4.02 m/s, 119° - -
1787926884 34.44° C 36% 1011.5 hPa 0 mm 1.34 m/s, 129° - -
1787926584 34.44° C 36% 1011.5 hPa 0 mm 4.47 m/s, 135° - -
1787926284 35° C 35% 1011.5 hPa 0 mm 2.68 m/s, 137° - -
1787925984 35° C 34% 1011.5 hPa 0 mm 4.47 m/s, 79° - -
1787925684 35° C 34% 1011.5 hPa 0 mm 2.68 m/s, 117° - -
1787925383 35° C 35% 1011.5 hPa 0 mm 4.92 m/s, 105° - -
1787925084 35.56° C 33% 1011.5 hPa 0 mm 4.02 m/s, 120° - -
1787924784 35.56° C 33% 1011.5 hPa 0 mm 3.13 m/s, 122° - -
1787924483 35.56° C 35% 1011.5 hPa 0 mm 3.13 m/s, 141° - -
1787924183 35.56° C 35% 1011.5 hPa 0 mm 0.89 m/s, 117° - -
1787923883 35.56° C 35% 1011.5 hPa 0 mm 2.24 m/s, 133° - -
1787923583 35.56° C 36% 1011.5 hPa 0 mm 3.13 m/s, 122° - -
1787923283 35.56° C 35% 1011.5 hPa 0 mm 1.79 m/s, 139° - -
1787922983 35.56° C 35% 1011.5 hPa 0 mm 2.68 m/s, 120° - -
1787922682 35.56° C 34% 1011.5 hPa 0 mm 4.47 m/s, 124° - -
1787922383 35.56° C 34% 1011.5 hPa 0 mm 2.24 m/s, 116° - -
1787922083 35.56° C 35% 1011.5 hPa 0 mm 3.13 m/s, 115° - -
1787921782 35° C 36% 1011.5 hPa 0 mm 4.47 m/s, 127° - -
1787921482 35.56° C 34% 1011.5 hPa 0 mm 5.36 m/s, 132° - -
1787921182 35.56° C 34% 1011.5 hPa 0 mm 5.81 m/s, 154° - -
1787920882 35.56° C 34% 1011.5 hPa 0 mm 3.58 m/s, 131° - -
1787920582 35.56° C 35% 1011.5 hPa 0 mm 4.47 m/s, 97° - -
1787920282 35° C 34% 1011.5 hPa 0 mm 5.81 m/s, 94° - -

* Rain latest hour (hover to see other rain measurements)
** Current wind speed in m/s (hover to see current wind gust speed)